Alpena, MI

6:22 PM EDT on May 24, 2018 (GMT -0400)
Alpena County Regional

Weather History for KAPN - June, 2012

Change the Weather History Date:

Tuesday, June 26, 2012

  Actual Average Record
Temperature  
Mean Temperature 66 °F 65 °F  
Max Temperature 81 °F 78 °F 98 °F (1983)
Min Temperature 51 °F 53 °F 35 °F (1922)
Degree Days  
Heating Degree Days 0 3  
Month to date heating degree days 84 134  
Since 1 June heating degree days 84 134  
Since 1 July heating degree days 6759 8091  
Cooling Degree Days 1 3  
Month to date cooling degree days 84 45  
Year to date cooling degree days 110 58  
Since 1 June cooling degree days 84 45  
Growing Degree Days 16 (Base 50)    
Moisture  
Dew Point 48 °F    
Average Humidity 59    
Maximum Humidity 83    
Minimum Humidity 35    
Precipitation  
Precipitation 0.00 in 0.10 in 2.32 in (1969)
Month to date precipitation 4.27 2.26  
Year to date precipitation 13.13 12.16  
Sea Level Pressure  
Sea Level Pressure 30.00 in    
Wind  
Wind Speed 6 mph (WNW)    
Max Wind Speed 18 mph    
Max Gust Speed 25 mph    
Visibility 10 miles    
Events      
T = Trace of Precipitation, MM = Missing Value Source: NWS Daily Summary

Daily Weather History Graph

Daily Weather History Graph

Search for Another Location

Airport or City:

Astronomy

Jun. 26, 2012 Rise Set
Actual Time 5:48 AM EDT 9:25 PM EDT
Civil Twilight 5:11 AM EDT 10:02 PM EDT
Nautical Twilight 4:21 AM EDT 10:52 PM EDT
Astronomical Twilight 3:15 AM EDT 11:58 PM EDT
Moon 1:25 PM EDT (6/26) 12:33 AM EDT (6/26)
Length of Visible Light 16h 51m
Length of Day
15h 36m
Waxing Crescent, 45% of the Moon is Illuminated
Jun 26
Waxing Crescent
Jun 26
First Quarter
Jul 3
Full
Jul 10
Last Quarter
Jul 19
New

Hourly Weather History & Observations

Time (EDT) Temp. Dew Point Humidity Pressure Visibility Wind Dir Wind Speed Gust Speed Precip Events Conditions
12:54 AM 57.0 °F 44.1 °F 62% 30.04 in 10.0 mi Variable 3.5 mph - N/A   Clear
1:54 AM 54.0 °F 46.0 °F 75% 30.04 in 10.0 mi West 3.5 mph - N/A   Clear
2:54 AM 52.0 °F 46.0 °F 80% 30.03 in 10.0 mi West 3.5 mph - N/A   Clear
3:54 AM 53.1 °F 46.0 °F 77% 30.03 in 10.0 mi Calm Calm - N/A   Clear
4:54 AM 52.0 °F 46.0 °F 80% 30.04 in 10.0 mi Calm Calm - N/A   Clear
5:54 AM 52.0 °F 46.0 °F 80% 30.04 in 10.0 mi West 4.6 mph - N/A   Clear
6:54 AM 54.0 °F 46.0 °F 75% 30.04 in 10.0 mi West 4.6 mph - N/A   Clear
7:54 AM 57.9 °F 46.9 °F 67% 30.04 in 10.0 mi WNW 6.9 mph - N/A   Clear
8:01 AM 59.0 °F 48.2 °F 67% 30.04 in 10.0 mi WNW 8.1 mph - N/A   Clear
8:54 AM 64.0 °F 48.0 °F 56% 30.05 in 10.0 mi WNW 9.2 mph - N/A   Clear
9:54 AM 69.1 °F 46.9 °F 45% 30.05 in 10.0 mi NW 10.4 mph - N/A   Partly Cloudy
10:54 AM 72.0 °F 48.0 °F 43% 30.04 in 10.0 mi NW 12.7 mph 19.6 mph N/A   Partly Cloudy
11:54 AM 75.0 °F 50.0 °F 41% 30.02 in 10.0 mi NW 9.2 mph - N/A   Partly Cloudy
12:54 PM 75.9 °F 48.9 °F 38% 30.01 in 10.0 mi NW 10.4 mph - N/A   Scattered Clouds
1:54 PM 78.1 °F 48.9 °F 36% 30.00 in 10.0 mi NW 9.2 mph 20.7 mph N/A   Scattered Clouds
2:54 PM 79.0 °F 50.0 °F 36% 29.98 in 10.0 mi NW 16.1 mph 21.9 mph N/A   Partly Cloudy
3:54 PM 79.0 °F 50.0 °F 36% 29.97 in 10.0 mi WNW 10.4 mph 18.4 mph N/A   Partly Cloudy
4:54 PM 79.0 °F 51.1 °F 38% 29.97 in 10.0 mi WNW 6.9 mph 16.1 mph N/A   Partly Cloudy
5:54 PM 78.1 °F 51.1 °F 39% 29.96 in 10.0 mi West 10.4 mph 18.4 mph N/A   Clear
6:54 PM 77.0 °F 48.9 °F 37% 29.96 in 10.0 mi WNW 8.1 mph - N/A   Clear
7:54 PM 75.0 °F 48.0 °F 38% 29.94 in 10.0 mi WNW 6.9 mph - N/A   Clear
8:54 PM 72.0 °F 46.0 °F 40% 29.93 in 10.0 mi WNW 3.5 mph - N/A   Clear
9:54 PM 66.9 °F 48.0 °F 51% 29.93 in 10.0 mi West 3.5 mph - N/A   Clear
10:54 PM 64.0 °F 46.9 °F 54% 29.95 in 10.0 mi Calm Calm - N/A   Partly Cloudy
11:54 PM 59.0 °F 48.9 °F 69% 29.95 in 10.0 mi Calm Calm - N/A   Partly Cloudy